Location: Roland
(31.1349°N, 85.4372°W)
Time: 21:10:34
(UTC+00:00)

Tiros 1 - Pass Details

Date: 27 April 2021
Orbit: 630 x 664 km, 48.4° (Epoch: 05 May)

Event Time Altitude Azimuth Distance (km) Brightness Sun altitude
Rises 17:39:13 0° 318° (NW) 2,923 10.4 72.9°
Reaches altitude 10° 17:41:46 10° 329° (NNW) 2,010 9.7 72.9°
Maximum altitude 17:45:52 31° 32° (NNE) 1,115 8.6 72.9°
Drops below altitude 10° 17:49:57 10° 94° (E) 2,000 9.8 72.8°
Sets 17:52:29 0° 105° (ESE) 2,905 10.5 72.7°
